Home   Weather   Maple Ridge   Past weeks

Flag for Canada Past Weather in Maple Ridge, British Columbia, Canada — Yesterday and Last 2 Weeks

Now
33 °F

Chilly.


Feels Like: 33 °F
Forecast: 29 / 40 °F
Wind: 1 mph from West

Location: P. Meadows Coastal Station

Current Time: Jan 16, 2017 at 11:31:56 am

Latest Report: Jan 16, 2017 at 10:00 am


Visibility: N/A

Pressure: 30.17 "Hg

Humidity: 86%

Dew Point: 29 °F

Location of Maple RidgeLocation

Past Weather in Maple Ridge — Graph

°F

Maple Ridge Temperature Yesterday

Maximum temperature yesterday: 40 °F (at 3:00 pm)
Minimum temperature yesterday: 24 °F (at 12:00 am)
Average temperature yesterday: 30 °F

High & Low Weather Summary for the Past Weeks

 TemperatureHumidityPressure
High40 °F (Jan 9, 12:00 pm)99% (Jan 7, 3:00 am)30.49 "Hg (Jan 7, 3:00 am)
Low14 °F (Jan 4, 7:00 am)33% (Jan 3, 1:00 pm)29.44 "Hg (Jan 8, 4:00 pm)
Average28 °F75%30.10 "Hg
* Reported Jan 1 10:00 am — Jan 16 10:00 am, Maple Ridge, Weather by CustomWeather, © 2017

Note: Actual official high and low records may vary slightly from our data, if they occured in-between our weather recording intervals... More about our weather records

Advertising

Maple Ridge Weather History for the Previous 24 Hours

Scroll right to see more
 ConditionsComfort  
Time TempWeatherWind HumidityBarometerVisibility
10:00 am
Mon, Jan 16
33 °FChilly.1 mph86%30.17 "HgN/A
9:00 am33 °FChilly.No wind84%30.18 "HgN/A
8:00 am33 °FChilly.1 mph87%30.19 "HgN/A
7:00 am32 °FChilly.No wind89%30.22 "HgN/A
6:00 am31 °FChilly.No wind88%30.22 "HgN/A
5:00 am31 °FChilly.1 mph87%30.23 "HgN/A
4:00 am31 °FChilly.1 mph89%30.24 "HgN/A
3:00 am31 °FChilly.1 mph88%30.27 "HgN/A
2:00 am31 °FChilly.1 mph88%30.26 "HgN/A
1:00 am30 °FChilly.No wind90%30.27 "HgN/A
12:00 am28 °FChilly.1 mph90%30.29 "HgN/A
11:00 pm
Sun, Jan 15
29 °FChilly.2 mph89%30.30 "HgN/A
10:00 pm29 °FChilly.1 mph90%30.33 "HgN/A
9:00 pm30 °FChilly.1 mph85%30.31 "HgN/A
8:00 pm31 °FChilly.2 mph83%30.32 "HgN/A
7:00 pm32 °FChilly.No wind90%30.30 "HgN/A
6:00 pm32 °FChilly.1 mph79%30.30 "HgN/A
5:00 pm34 °FChilly.1 mph73%30.30 "HgN/A
4:00 pm38 °FChilly.2 mph68%30.29 "HgN/A
3:00 pm40 °FChilly.3 mph65%30.29 "HgN/A
2:00 pm39 °FChilly.1 mph67%30.29 "HgN/A
1:00 pm37 °FChilly.2 mph71%30.29 "HgN/A
12:00 pm33 °FChilly.2 mph78%30.31 "HgN/A
11:00 am32 °FChilly.1 mph80%30.32 "HgN/A
Weather by CustomWeather, © 2017

See weather overviewHow to use our weather pages